This demonstration page uses our WeatherBlox Daily Observations layout. Learn more.

39.29038, -76.61219

Hourly Observations for February 9, 2020

Temp ( °F °C ) Dew Point ( °F °C ) Humidity (%) Winds ( mph kmh ) Pressure ( in mb ) Visibility ( mi km ) Precip ( " mm )
12:54 am 00:54 undefined 37 2.8 26 -3.3 65 65 undefined N/A 30.36 1028 N/A 0 0
1:54 am 01:54 undefined 37 2.8 27 -2.8 67 67 undefined N/A 30.36 1028 N/A 0 0
2:54 am 02:54 undefined 35 1.7 26 -3.3 70 70 undefined N/A 30.35 1028 N/A 0 0
3:54 am 03:54 undefined 36 2.2 25 -3.9 64 64 undefined N/A 30.37 1029 N/A 0 0
4:54 am 04:54 undefined 35 1.7 26 -3.3 70 70 undefined N/A 30.4 1029 N/A 0 0
5:54 am 05:54 undefined 34 1.1 25 -3.9 70 70 undefined N/A 30.41 1030 N/A 0 0
6:54 am 06:54 undefined 33 0.6 25 -3.9 72 72 undefined N/A 30.44 1031 N/A 0 0
7:54 am 07:54 undefined 34 1.1 25 -3.9 70 70 undefined N/A 30.47 1032 N/A 0 0
8:54 am 08:54 undefined 39 3.9 27 -2.8 62 62 undefined N/A 30.55 1035 N/A 0 0
9:54 am 09:54 undefined 43 6.1 25 -3.9 49 49 undefined N/A 30.56 1035 N/A 0 0
10:54 am 10:54 undefined 44 6.7 21 -6.1 40 40 undefined N/A 30.55 1035 N/A 0 0
11:54 am 11:54 undefined 47 8.3 23 -5 39 39 undefined N/A 30.54 1034 N/A 0 0
12:54 pm 12:54 undefined 46 7.8 21 -6.1 37 37 undefined N/A 30.49 1033 N/A 0 0
1:54 pm 13:54 undefined 49 9.4 21 -6.1 33 33 undefined N/A 30.48 1032 N/A 0 0
2:54 pm 14:54 undefined 49 9.4 20 -6.7 32 32 undefined N/A 30.41 1030 N/A 0 0
3:54 pm 15:54 undefined 45 7.2 25 -3.9 46 46 undefined N/A 30.39 1029 N/A 0 0
4:54 pm 16:54 undefined 44 6.7 23 -5 43 43 undefined N/A 30.42 1030 N/A 0 0
5:54 pm 17:54 undefined 43 6.1 26 -3.3 51 51 undefined N/A 30.45 1031 N/A 0 0
6:54 pm 18:54 undefined 44 6.7 25 -3.9 47 47 undefined N/A 30.44 1031 N/A 0 0
7:54 pm 19:54 undefined 43 6.1 25 -3.9 49 49 undefined N/A 30.44 1031 N/A 0 0
8:54 pm 20:54 undefined 43 6.1 28 -2.2 56 56 undefined N/A 30.41 1030 N/A 0 0
9:54 pm 21:54 undefined 44 6.7 28 -2.2 53 53 undefined N/A 30.4 1029 N/A 0 0
10:54 pm 22:54 undefined 44 6.7 28 -2.2 53 53 undefined N/A 30.36 1028 N/A 0 0
11:54 pm 23:54 undefined 43 6.1 29 -1.7 58 58 undefined N/A 30.33 1027 N/A 0 0

Powered by AerisWeather